{"data":{"norad_id":57716,"intl_designator":"2023-129U","name":"STARLINK-30281","alt_names":[],"object_type":"PAYLOAD","status":"ACTIVE","operator":null,"country":"US","launch_date":"2023-08-27","launch_site_code":"AFETR","launch_vehicle":null,"mission":null,"orbit_class":"UNKNOWN","rcs_meters":null,"size_class":null,"mass_kg":null,"dimensions":null,"purposes":["comms"],"wikipedia_slug":null,"has_3d_model":false,"image_url":null,"decayed_at":null,"tle_current":{"epoch":"2026-09-20T21:36:32.819040Z","epoch_age_seconds":96713,"freshness":"FRESH","line1":"1 57716U 23129U   26263.90037985  .00000270  00000+0  19342-4 0  9994","line2":"2 57716  43.0030  95.7881 0001266 309.5040  50.5700 15.27585560170393","mean_motion":15.2758556,"eccentricity":0.0001266,"inclination_deg":43.003,"raan_deg":95.7881,"arg_perigee_deg":309.504,"mean_anomaly_deg":50.57,"bstar":1.9342e-5,"rev_number":17039,"period_min":94.266405608076,"perigee_km":482.1638233979,"apogee_km":483.901071502,"semimajor_km":6861.1694474499,"source":"CELESTRAK","updated_at":"2026-09-21T09:00:33.677220Z"}}}